Satellite-Ground Cal/Val Region Overpasses Predictions

Prediction of Satellite NPP Overpassing Cal/Val Region: PacNW

Region Location: (Latitude: 10.00, Longitude: 139.50) to (Latitude: 22.70, Longitude: 165.60).

Table of predicted overpasses for the next 14.0 days since TLE Epoch: 10/14/2016
Interval Starting Time Starting Location Ending Time Ending Location
1 10/15/2016 03:24:20 ( 10.05, 148.77) 10/15/2016 03:27:55 ( 22.67, 145.77)
2 10/15/2016 15:56:13 ( 22.67, 145.99) 10/15/2016 15:59:48 ( 10.05, 143.00)
3 10/16/2016 03:05:19 ( 10.05, 153.52) 10/16/2016 03:08:54 ( 22.68, 150.52)
4 10/16/2016 15:37:12 ( 22.66, 150.74) 10/16/2016 15:40:47 ( 10.04, 147.75)
5 10/17/2016 02:46:16 ( 10.00, 158.29) 10/17/2016 02:49:52 ( 22.68, 155.28)
6 10/17/2016 15:18:10 ( 22.65, 155.50) 10/17/2016 15:21:45 ( 10.03, 152.50)
7 10/18/2016 02:27:15 ( 10.01, 163.04) 10/18/2016 02:30:51 ( 22.69, 160.03)
8 10/18/2016 14:59:08 ( 22.70, 160.26) 10/18/2016 15:02:44 ( 10.02, 157.25)
9 10/19/2016 02:10:53 ( 19.42, 165.59) 10/19/2016 02:11:48 ( 22.65, 164.79)
10 10/19/2016 03:49:43 ( 10.03, 142.42) 10/19/2016 03:53:12 ( 22.30, 139.51)
11 10/19/2016 14:40:06 ( 22.69, 165.01) 10/19/2016 14:43:42 ( 10.01, 162.00)
12 10/19/2016 16:21:36 ( 22.68, 139.64) 10/19/2016 16:21:45 ( 22.16, 139.51)
13 10/20/2016 03:30:42 ( 10.04, 147.17) 10/20/2016 03:34:17 ( 22.66, 144.17)
14 10/20/2016 16:02:35 ( 22.67, 144.39) 10/20/2016 16:06:10 ( 10.05, 141.39)
15 10/21/2016 03:11:40 ( 10.05, 151.92) 10/21/2016 03:15:15 ( 22.68, 148.92)
16 10/21/2016 15:43:33 ( 22.66, 149.14) 10/21/2016 15:47:08 ( 10.04, 146.14)
17 10/22/2016 02:52:38 ( 10.01, 156.68) 10/22/2016 02:56:14 ( 22.69, 153.67)
18 10/22/2016 15:24:32 ( 22.65, 153.89) 10/22/2016 15:28:07 ( 10.03, 150.90)
19 10/23/2016 02:33:36 ( 10.02, 161.44) 10/23/2016 02:37:11 ( 22.64, 158.44)
20 10/23/2016 15:05:29 ( 22.69, 158.66) 10/23/2016 15:09:05 ( 10.01, 155.65)
21 10/24/2016 02:15:19 ( 12.62, 165.59) 10/24/2016 02:18:10 ( 22.66, 163.19)
22 10/24/2016 03:56:05 ( 10.04, 140.81) 10/24/2016 03:57:41 ( 15.68, 139.51)
23 10/24/2016 14:46:28 ( 22.68, 163.41) 10/24/2016 14:50:03 ( 10.06, 160.41)
24 10/25/2016 03:37:04 ( 10.05, 145.56) 10/25/2016 03:40:39 ( 22.67, 142.56)
25 10/25/2016 14:30:29 ( 11.92, 165.60) 10/25/2016 14:31:01 ( 10.04, 165.16)
26 10/25/2016 16:08:56 ( 22.66, 142.79) 10/25/2016 16:12:31 ( 10.04, 139.79)
27 10/26/2016 03:18:01 ( 10.01, 150.33) 10/26/2016 03:21:37 ( 22.69, 147.32)
28 10/26/2016 15:49:55 ( 22.65, 147.54) 10/26/2016 15:53:30 ( 10.02, 144.54)
29 10/27/2016 02:59:00 ( 10.02, 155.08) 10/27/2016 03:02:35 ( 22.65, 152.08)
30 10/27/2016 15:30:52 ( 22.69, 152.30) 10/27/2016 15:34:28 ( 10.01, 149.29)
31 10/28/2016 02:39:58 ( 10.04, 159.83) 10/28/2016 02:43:33 ( 22.66, 156.83)


NCC Satellite Cal/Val Overpasses Prediction Service
